User: anonymous   Login
Location: Azul
(36.7830°S, 59.8500°W)
Time: 10:29:42
(UTC-03:00)
Language:

Gurwin Techsat 1B - Orbit

View from above orbital plane
View from above orbital plane
View from above satellite
View from above satellite

Ground track
Ground track

The orbit data is extracted from the following two-line orbital elements,

1 25397U 98043D   21295.11802093 -.00000001  00000-0  19257-4 0  9993
2 25397  98.7839 240.3888 0002376  81.5270 278.6178 14.23718788209735
Epoch (UTC): 22 October 2021 02:49:57
Eccentricity: 0.0002376
inclination: 98.7839°
perigee height: 811 km
apogee height: 814 km
right ascension of ascending node: 240.3888°
argument of perigee: 81.5270°
revolutions per day: 14.23718788
mean anomaly at epoch: 278.6178°
orbit number at epoch: 20973

The dashed part of the orbit path shows where the satellite is in the earth's shadow,  

DLR